Flag for Iceland Weather past 2 weeks in Keflavík, Iceland

Now
41 °F

Passing clouds.


Feels Like: 32 °F
Forecast: N/A
Wind: 20 mph from Northeast

Location: Keflavikurflugvollur

Current Time: May 3, 2015 at 8:07:57 PM

Latest Report: May 3, 2015 at 7:30 PM


Visibility: N/A

Pressure: 29.92 "Hg

Humidity: 53%

Dew point: 25 °F

Location of KeflavíkLocation

Historic Weather in Keflavík — Graph

°F

Keflavík temperature yesterday

Maximum temperature yesterday: 43 °F (at 3:30 PM)
Minimum temperature yesterday: 28 °F (at 6:00 AM)
Average temperature yesterday: 36 °F

Past Weeks' High & Low Weather Summary

 TemperatureHumidityPressure
High48 °F (Apr 19, 2:00 PM)100% (Apr 19, 4:30 AM)30.36 "Hg (Apr 19, 4:30 AM)
Low23 °F (Apr 26, 5:30 AM)34% (Apr 25, 1:30 PM)29.86 "Hg (May 2, 5:00 PM)
Average35 °F68%30.08 "Hg
* Reported Apr 18 7:00 PM — May 3 7:00 PM, Keflavík, Weather by CustomWeather, © 2015

Note: Actual official high and low records may vary slightly from our data, if they occured in-between our weather recording intervals... More about our weather records

Advertising

Keflavík weather history for previous 24 hours

 ConditionsComfort  
Time TempWeatherWind HumidityBarometerVisibility
7:00 PM
Sun, May 3
41 °FPassing clouds.18 mph57%29.92 "HgN/A
6:30 PM41 °FPassing clouds.20 mph53%29.92 "HgN/A
6:00 PM41 °FPassing clouds.18 mph53%29.92 "HgN/A
5:30 PM41 °FPassing clouds.20 mph53%29.92 "HgN/A
5:00 PM41 °FPassing clouds.18 mph49%29.92 "HgN/A
4:30 PM43 °FPassing clouds.17 mph42%29.92 "HgN/A
4:00 PM43 °FPassing clouds.16 mph42%29.92 "HgN/A
3:30 PM43 °FPassing clouds.14 mph39%29.92 "HgN/A
3:00 PM43 °FPassing clouds.12 mph39%29.92 "HgN/A
2:30 PM43 °FPassing clouds.9 mph39%29.92 "HgN/A
2:00 PM41 °FPassing clouds.10 mph42%29.92 "HgN/A
1:30 PM41 °FPassing clouds.9 mph42%29.92 "HgN/A
1:00 PM41 °FPassing clouds.10 mph49%29.95 "HgN/A
12:30 PM39 °FPassing clouds.8 mph48%29.95 "HgN/A
12:00 PM39 °FPassing clouds.7 mph48%29.95 "HgN/A
11:30 AM39 °FPassing clouds.7 mph45%29.95 "HgN/A
11:00 AM39 °FPassing clouds.7 mph48%29.95 "HgN/A
10:30 AM39 °FPassing clouds.8 mph52%29.95 "HgN/A
10:00 AM37 °FPassing clouds.9 mph52%29.95 "HgN/A
9:30 AM37 °FSunny.12 mph52%29.95 "Hg10 mi
9:00 AM37 °FSunny.14 mph52%29.95 "Hg10 mi
8:30 AM37 °FSunny.12 mph52%29.95 "Hg10 mi
8:00 AM36 °FSunny.10 mph56%29.95 "Hg10 mi
7:30 AM34 °FSunny.9 mph65%29.92 "Hg10 mi
7:00 AM34 °FSunny.9 mph65%29.92 "Hg10 mi
6:30 AM34 °FSunny.9 mph70%29.92 "Hg10 mi
6:00 AM32 °FSunny.9 mph75%29.92 "Hg10 mi
5:30 AM32 °FPassing clouds.12 mph80%29.92 "HgN/A
5:00 AM32 °FPassing clouds.10 mph75%29.92 "HgN/A
4:30 AM32 °FPassing clouds.10 mph80%29.92 "HgN/A
4:00 AM34 °FPassing clouds.10 mph81%29.92 "HgN/A
3:30 AM34 °FPassing clouds.10 mph75%29.92 "HgN/A
3:00 AM34 °FPassing clouds.12 mph75%29.92 "HgN/A
2:30 AM32 °FPassing clouds.13 mph87%29.92 "HgN/A
2:00 AM34 °FPassing clouds.13 mph81%29.92 "HgN/A
1:30 AM34 °FPassing clouds.13 mph81%29.92 "HgN/A
1:00 AM34 °FPassing clouds.12 mph93%29.92 "HgN/A
12:30 AM36 °FPassing clouds.13 mph87%29.92 "HgN/A
12:00 AM36 °FPassing clouds.15 mph93%29.92 "HgN/A
11:30 PM
Sat, May 2
36 °FPassing clouds.14 mph93%29.92 "HgN/A
11:00 PM36 °FPassing clouds.16 mph87%29.92 "HgN/A
10:30 PM37 °FPassing clouds.12 mph75%29.89 "HgN/A
10:00 PM39 °FPassing clouds.14 mph70%29.89 "HgN/A
9:00 PM39 °FBroken clouds.17 mph75%29.89 "HgN/A
8:30 PM41 °FBroken clouds.15 mph70%29.89 "HgN/A
8:00 PM41 °FBroken clouds.16 mph70%29.89 "HgN/A
Weather by CustomWeather, © 2015

See weather overviewHow to use our weather pages